Faro, Portugal

11:30 PM WET on November 21, 2019 (GMT +0000)
Faro

Weather History for LPFR - September, 2019

Change the Weather History Date:

Monday, September 2, 2019

  Actual Average Record
Temperature  
Mean Temperature 78 °F -  
Max Temperature 87 °F 77 °F 88 °F (2017)
Min Temperature 68 °F 63 °F 59 °F (2002)
Cooling Degree Days 12    
Growing Degree Days 28 (Base 50)    
Moisture  
Dew Point 64 °F    
Average Humidity 63    
Maximum Humidity 94    
Minimum Humidity 36    
Precipitation  
Precipitation 0.00 in 0.02 in - ()
Sea Level Pressure  
Sea Level Pressure 29.95 in    
Wind  
Wind Speed 4 mph ()    
Max Wind Speed 12 mph    
Max Gust Speed -    
Visibility 13.9 miles    
Events      
Averages and records for this station are not official NWS values.
T = Trace of Precipitation, MM = Missing Value Source: Averaged Metar Reports

Daily Weather History Graph

Daily Weather History Graph

Search for Another Location

Airport or City:

Astronomy

Sep. 02, 2019 Rise Set
Actual Time 7:03 AM WEST 7:59 PM WEST
Civil Twilight 6:36 AM WEST 8:26 PM WEST
Nautical Twilight 6:05 AM WEST 8:57 PM WEST
Astronomical Twilight 5:32 AM WEST 9:29 PM WEST
Moon 10:25 AM WEST (9/2) 10:18 PM WEST (9/2)
Length of Visible Light 13h 49m
Length of Day
12h 56m
Waxing Crescent, 13% of the Moon is Illuminated
Sep 2
Waxing Crescent
Sep 6
First Quarter
Sep 14
Full
Sep 22
Last Quarter
Sep 28
New

Hourly Weather History & Observations

Time (WEST) Temp. Heat Index Dew Point Humidity Pressure Visibility Wind Dir Wind Speed Gust Speed Precip Events Conditions
12:00 AM 73.4 °F - 68.0 °F 83% 29.89 in - West 4.6 mph - N/A   Clear
12:30 AM 71.6 °F - 68.0 °F 88% 29.89 in - Variable 1.2 mph - N/A   Clear
1:00 AM 73 °F - 66 °F 73% 29.93 in 9 mi Calm Calm - -   Clear
1:00 AM 71.6 °F - 66.2 °F 83% 29.89 in - Variable 2.3 mph - N/A   Clear
1:30 AM 69.8 °F - 66.2 °F 88% 29.92 in - Calm Calm - N/A   Clear
2:00 AM 71 °F - 65 °F 77% 29.93 in - Calm Calm - -  
2:00 AM 69.8 °F - 66.2 °F 88% 29.89 in - Calm Calm - N/A   Clear
2:30 AM 69.8 °F - 66.2 °F 88% 29.89 in - North 4.6 mph - N/A   Clear
3:00 AM 75 °F - 56 °F 40% 29.92 in - NE 4.5 mph - -  
3:00 AM 75.2 °F - 55.4 °F 50% 29.89 in - NE 4.6 mph - N/A   Clear
3:30 AM 73.4 °F - 64.4 °F 73% 29.89 in - Calm Calm - N/A   Clear
4:00 AM 72 °F - 61 °F 59% 29.91 in 12 mi Calm Calm - -   Clear
4:00 AM 69.8 °F - 60.8 °F 73% 29.89 in - NNE 2.3 mph - N/A   Clear
4:30 AM 69.8 °F - 57.2 °F 64% 29.89 in - NNE 5.8 mph - N/A   Clear
5:00 AM 70 °F - 56 °F 52% 29.92 in - Calm Calm - -  
5:00 AM 69.8 °F - 57.2 °F 64% 29.89 in - NNE 5.8 mph - N/A   Clear
5:30 AM 69.8 °F - 57.2 °F 64% 29.89 in - NNE 3.5 mph - N/A   Clear
6:00 AM 66.2 °F - 57.2 °F 73% 29.89 in - NNE 5.8 mph - N/A   Clear
6:30 AM 69.8 °F - 57.2 °F 64% 29.89 in - NNE 8.1 mph - N/A   Clear
7:00 AM 72 °F - 54 °F 42% 29.94 in 16 mi NE 6.7 mph - -   Clear
7:00 AM 71.6 °F - 53.6 °F 53% 29.92 in - NNE 9.2 mph - N/A   Clear
7:30 AM 71.6 °F - 55.4 °F 57% 29.92 in - NNE 6.9 mph - N/A   Clear
8:00 AM 72 °F - 59 °F 55% 29.95 in - NE 6.7 mph - -  
8:00 AM 71.6 °F - 59.0 °F 64% 29.92 in - NNE 8.1 mph - N/A   Clear
8:30 AM 75.2 °F - 60.8 °F 61% 29.92 in - NE 5.8 mph - N/A   Clear
9:00 AM 77 °F - 64 °F 56% 29.96 in - East 6.7 mph - -  
9:00 AM 75.2 °F - 64.4 °F 69% 29.95 in - ENE 5.8 mph - N/A   Clear
9:30 AM 77.0 °F - 66.2 °F 69% 29.95 in - East 6.9 mph - N/A   Clear
10:00 AM 80 °F - 66 °F 54% 29.97 in 16 mi East 4.5 mph - -   Clear
10:30 AM 82.4 °F 83.9 °F 64.4 °F 54% 29.95 in - NE 3.5 mph - N/A   Clear
11:00 AM 84.2 °F 84.4 °F 60.8 °F 45% 29.95 in - SSE 3.5 mph - N/A   Clear
11:30 AM 78.8 °F - 69.8 °F 74% 29.98 in - SE 11.5 mph - N/A   Clear
12:00 PM 83 °F - 63 °F 40% 30.00 in - ESE 8.9 mph - -  
12:00 PM 82.4 °F 82.9 °F 60.8 °F 48% 29.98 in - ESE 10.4 mph - N/A   Clear
12:30 PM 82.4 °F 83.4 °F 62.6 °F 51% 29.98 in - ESE 8.1 mph - N/A   Clear
1:00 PM 86 °F - 63 °F 36% 29.99 in 16 mi SE 6.7 mph - -   Clear
1:00 PM 84.2 °F 85.0 °F 62.6 °F 48% 29.95 in - SE 5.8 mph - N/A   Clear
1:30 PM 86.0 °F 87.3 °F 64.4 °F 48% 29.95 in - SE 6.9 mph - N/A   Clear
2:00 PM 84.2 °F 85.0 °F 62.6 °F 48% 29.98 in - ESE 8.1 mph - N/A   Clear
2:30 PM 84.2 °F 85.0 °F 62.6 °F 48% 29.98 in - SE 9.2 mph - N/A   Clear
3:00 PM 82 °F - 66 °F 50% 29.99 in - South 8.9 mph - -  
3:00 PM 82.4 °F 83.4 °F 62.6 °F 51% 29.98 in - SSE 10.4 mph - N/A   Clear
3:30 PM 82.4 °F 83.9 °F 64.4 °F 54% 29.98 in - SSE 6.9 mph - N/A   Clear
4:00 PM 82 °F - 65 °F 48% 29.99 in 12 mi South 6.7 mph - -   Clear
4:00 PM 80.6 °F 82.3 °F 64.4 °F 58% 29.98 in - South 6.9 mph - N/A   Clear
4:30 PM 80.6 °F 82.3 °F 64.4 °F 58% 29.98 in - SW 6.9 mph - N/A   Clear
5:00 PM 84 °F - 62 °F 37% 29.98 in - SW 4.5 mph - -  
5:00 PM 82.4 °F 83.4 °F 62.6 °F 51% 29.95 in - SW 5.8 mph - N/A   Clear
5:30 PM 80.6 °F 81.8 °F 62.6 °F 54% 29.95 in - SW 5.8 mph - N/A   Clear
6:00 PM 82.4 °F 82.9 °F 60.8 °F 48% 29.95 in - WSW 6.9 mph - N/A   Clear
6:30 PM 82.4 °F 82.5 °F 59.0 °F 45% 29.95 in - WSW 4.6 mph - N/A   Clear
7:00 PM 80 °F - 66 °F 54% 29.98 in - West 3.5 mph - -  
7:00 PM 80.6 °F 82.7 °F 66.2 °F 61% 29.95 in - WSW 5.8 mph - N/A   Clear
7:30 PM 78.8 °F - 66.2 °F 65% 29.95 in - West 5.8 mph - N/A   Clear
8:00 PM 78 °F - 68 °F 63% 29.99 in - West 4.5 mph - -  
8:00 PM 77.0 °F - 68.0 °F 74% 29.95 in - WSW 4.6 mph - N/A   Clear
8:30 PM 75.2 °F - 69.8 °F 83% 29.98 in - WSW 5.8 mph - N/A   Clear
9:00 PM 77 °F - 69 °F 69% 30.01 in - North 2.2 mph - -  
9:00 PM 75.2 °F - 68.0 °F 78% 29.98 in - West 3.5 mph - N/A   Clear
9:30 PM 77.0 °F - 68.0 °F 74% 29.98 in - Calm Calm - N/A   Clear
10:00 PM 76 °F - 71 °F 79% 30.03 in 16 mi North 2.2 mph - -   Clear
10:00 PM 75.2 °F - 71.6 °F 89% 30.01 in - SE 2.3 mph - N/A   Clear
10:30 PM 75.2 °F - 71.6 °F 89% 30.01 in - SE 3.5 mph - N/A   Clear
11:00 PM 74 °F - 71 °F 87% 30.03 in - North 2.2 mph - -  
11:00 PM 73.4 °F - 71.6 °F 94% 30.01 in - ESE 2.3 mph - N/A   Clear